Elkins, WV

9:13 AM EST on November 14, 2019 (GMT -0500)
Elkins-Randolph County

Weather History for KEKN - September, 2019

Change the Weather History Date:

Monday, September 9, 2019

  Actual Average Record
Temperature  
Mean Temperature 70 °F 65 °F  
Max Temperature 82 °F 76 °F 91 °F (1941)
Min Temperature 57 °F 53 °F 37 °F (1944)
Degree Days  
Heating Degree Days 0 2  
Month to date heating degree days 0 16  
Since 1 July heating degree days 7 46  
Cooling Degree Days 5 2  
Month to date cooling degree days 42 23  
Year to date cooling degree days 713 449  
Growing Degree Days 20 (Base 50)    
Moisture  
Dew Point 57 °F    
Average Humidity 73    
Maximum Humidity 93    
Minimum Humidity 40    
Precipitation  
Precipitation 0.00 in 0.11 in 1.32 in (2018)
Month to date precipitation T 1.09  
Year to date precipitation 37.71 33.90  
Snow  
Snow 0.00 in 0.00 in 0.00 in (2017)
Month to date snowfall 0.0 0.0  
Since 1 September snowfall 0.0 0.0  
Snow Depth 0.00 in    
Sea Level Pressure  
Sea Level Pressure 30.22 in    
Wind  
Wind Speed 1 mph ()    
Max Wind Speed 12 mph    
Max Gust Speed 16 mph    
Visibility 9.4 miles    
Events      
T = Trace of Precipitation, MM = Missing Value Source: Averaged Metar Reports

Daily Weather History Graph

Daily Weather History Graph

Search for Another Location

Airport or City:

Astronomy

Sep. 09, 2019 Rise Set
Actual Time 6:55 AM EDT 7:37 PM EDT
Civil Twilight 6:28 AM EDT 8:04 PM EDT
Nautical Twilight 5:56 AM EDT 8:36 PM EDT
Astronomical Twilight 5:23 AM EDT 9:09 PM EDT
Moon 5:29 PM EDT (9/9) 2:27 AM EDT (9/9)
Length of Visible Light 13h 36m
Length of Day
12h 42m
Waxing Gibbous, 83% of the Moon is Illuminated
Sep 9
Waxing Gibbous
Sep 14
Full
Sep 21
Last Quarter
Sep 28
New
Oct 5
First Quarter

Hourly Weather History & Observations

Time (EDT) Temp. Heat Index Dew Point Humidity Pressure Visibility Wind Dir Wind Speed Gust Speed Precip Events Conditions
12:51 AM 62.1 °F - 59.0 °F 90% 30.17 in 10.0 mi Calm Calm - N/A   Overcast
1:51 AM 62.1 °F - 57.9 °F 86% 30.17 in 10.0 mi Calm Calm - N/A   Mostly Cloudy
2:51 AM 61.0 °F - 57.9 °F 90% 30.17 in 9.0 mi Calm Calm - N/A   Overcast
3:51 AM 62.1 °F - 57.9 °F 86% 30.17 in 10.0 mi Calm Calm - N/A   Overcast
4:51 AM 60.1 °F - 57.0 °F 90% 30.17 in 8.0 mi Calm Calm - N/A   Mostly Cloudy
5:51 AM 60.1 °F - 57.9 °F 93% 30.18 in 8.0 mi Calm Calm - N/A   Mostly Cloudy
6:39 AM 60.1 °F - 57.0 °F 90% 30.21 in 8.0 mi Calm Calm - N/A   Overcast
6:48 AM 60.8 °F - 57.2 °F 88% 30.21 in 8.0 mi Calm Calm - N/A   Overcast
6:51 AM 60.1 °F - 57.0 °F 90% 30.20 in 8.0 mi Calm Calm - N/A   Overcast
7:04 AM 60.1 °F - 57.0 °F 90% 30.22 in 7.0 mi Calm Calm - N/A   Mostly Cloudy
7:51 AM 61.0 °F - 57.0 °F 87% 30.22 in 6.0 mi Calm Calm - N/A   Scattered Clouds
8:51 AM 64.0 °F - 59.0 °F 84% 30.24 in 10.0 mi Calm Calm - N/A   Partly Cloudy
9:18 AM 64.9 °F - 59.0 °F 81% 30.25 in 10.0 mi Calm Calm - N/A   Partly Cloudy
9:51 AM 66.9 °F - 60.1 °F 79% 30.24 in 10.0 mi Calm Calm - N/A   Clear
10:51 AM 73.9 °F - 62.1 °F 66% 30.23 in 10.0 mi Calm Calm - N/A   Scattered Clouds
11:51 AM 79.0 °F - 59.0 °F 50% 30.22 in 10.0 mi Variable 3.5 mph - N/A   Clear
12:51 PM 79.0 °F - 59.0 °F 50% 30.21 in 10.0 mi Calm Calm - N/A   Scattered Clouds
1:51 PM 81.0 °F 81.1 °F 57.9 °F 45% 30.22 in 10.0 mi West 8.1 mph - N/A   Overcast
2:51 PM 82.0 °F 81.6 °F 55.9 °F 41% 30.21 in 10.0 mi NW 8.1 mph - N/A   Partly Cloudy
3:51 PM 81.0 °F 80.8 °F 55.9 °F 42% 30.21 in 10.0 mi NNW 6.9 mph - N/A   Partly Cloudy
4:51 PM 82.0 °F 81.6 °F 55.9 °F 41% 30.21 in 10.0 mi NW 8.1 mph - N/A   Scattered Clouds
5:51 PM 81.0 °F 80.7 °F 55.0 °F 41% 30.21 in 10.0 mi WNW 5.8 mph - N/A   Clear
6:51 PM 78.1 °F - 54.0 °F 43% 30.22 in 10.0 mi North 4.6 mph - N/A   Clear
7:51 PM 68.0 °F - 57.9 °F 70% 30.25 in 10.0 mi Calm Calm - N/A   Clear
8:51 PM 64.9 °F - 57.0 °F 75% 30.27 in 10.0 mi Calm Calm - N/A   Clear
9:51 PM 61.0 °F - 55.9 °F 83% 30.28 in 10.0 mi Calm Calm - N/A   Clear
10:51 PM 59.0 °F - 55.0 °F 87% 30.28 in 10.0 mi Calm Calm - N/A   Clear
11:51 PM 57.9 °F - 54.0 °F 87% 30.27 in 10.0 mi Calm Calm - N/A   Clear